Regional Weather Roundup
Issued by NWS

Current Version | Previous Version | Text Only | Print | Product List | Glossary On
Versions: 1 2 3 4 5 6 7 8 9 10 11 12 13 14 15 16 17 18 19 20 21 22 23 24 25 26 27 28 29 30 31 32 33 34 35 36 37 38 39 40 41 42 43 44 45 46 47 48 49 50
000
ASCA42 TJSJ 070210
RWRPR
PUERTO RICO/U.S. VIRGIN ISLANDS HOURLY WEATHER ROUNDUP
NATIONAL WEATHER SERVICE SAN JUAN PR
1000 PM AST MON JUL 06 2015

PRZ001-004-070300-
PUERTO RICO

CITY           SKY/WX    TMP DP  RH WIND       PRES   REMARKS
SAN JUAN LMM   PTCLDY    82  73  74 E9        30.08S
PONCE          CLEAR     82  70  65 E6        30.00
CEIBA          CLOUDY    81  73  78 E10       30.10R
$$

PRZ006-007-070300-
U.S. VIRGIN ISLANDS

CITY           SKY/WX    TMP DP  RH WIND       PRES   REMARKS
CHARLOTTE AMA  CLOUDY    82  72  69 E9        30.07S
CHRISTIANSTED  CLEAR     81  72  74 E12       30.07S
$$

HOURLY WEATHER ROUNDUP FOR THE NEWS MEDIA

CITY           SKY/WX    TMP DP  RH WIND       PRES   REMARKS
ORLANDO        CLOUDY    74  69  85 S5        30.14F
NEW YORK       MOCLDY    74  66  76 SE8       30.11S
NEWARK         MOCLDY    75  66  73 VRB7      30.10R
CHICAGO        TSTM      73  70  90 W21G26    29.88R FOG
HARTFORD       CLEAR     68  63  84 S3        30.12F
BOSTON         PTCLDY    73  64  73 S9        30.10R
DALLAS         PTCLDY    88  69  53 S14       29.92R HX  92
PHILADELPHIA   MOCLDY    79  71  76 SE14      30.08R
LOS ANGELES    CLOUDY    65  60  84 W10       29.97S
WASHINGTON DC  PTCLDY    73  72  96 S5        30.02S


USA.gov is the U.S. government's official web portal to all federal, state and local government web resources and services.